Eloy Alfaro International Airport


Codes: SEMT/MEC
Name: Eloy Alfaro International Airport
City: Manta
Country: Ecuador
Elevation: 48 ft.
Wikipedia:

Photos at Eloy Alfaro International Airport


   Photos courtesy of SpottingLog. You can add your own sightings and photos by signing up for a free trial today.



No photos found.

Weather at Eloy Alfaro International Airport


Time (UTC)DescriptionTempratureWindCloud coverageVisibilityPressureHumidity
21-Jun-2024 12:00Broken Clouds23°C4 mph, SW75%10000m1010hPa83%
21-Jun-2024 15:00Broken Clouds24°C2 mph, S83%10000m1011hPa81%
21-Jun-2024 18:00Overcast Clouds25°C7 mph, W91%10000m1011hPa77%
21-Jun-2024 21:00Overcast Clouds25°C9 mph, W97%10000m1009hPa78%
22-Jun-2024 00:00Overcast Clouds24°C7 mph, SW92%10000m1011hPa83%
22-Jun-2024 03:00Overcast Clouds24°C7 mph, SW100%10000m1013hPa85%
22-Jun-2024 06:00Overcast Clouds23°C7 mph, SW100%10000m1012hPa86%
22-Jun-2024 09:00Overcast Clouds23°C4 mph, SW100%10000m1011hPa87%
22-Jun-2024 12:00Overcast Clouds23°C7 mph, SW100%10000m1012hPa87%
22-Jun-2024 15:00Overcast Clouds25°C4 mph, SW98%10000m1013hPa79%
22-Jun-2024 18:00Overcast Clouds25°C4 mph, W98%10000m1011hPa78%
22-Jun-2024 21:00Overcast Clouds25°C4 mph, W99%10000m1009hPa82%
23-Jun-2024 00:00Overcast Clouds24°C7 mph, W100%10000m1011hPa85%
23-Jun-2024 03:00Overcast Clouds24°C7 mph, W100%10000m1013hPa87%
23-Jun-2024 06:00Light Rain24°C7 mph, SW100%10000m1012hPa88%
23-Jun-2024 09:00Overcast Clouds24°C7 mph, SW100%10000m1011hPa88%
23-Jun-2024 12:00Overcast Clouds24°C4 mph, SW100%10000m1012hPa88%
23-Jun-2024 15:00Overcast Clouds25°C4 mph, SW100%10000m1013hPa82%
23-Jun-2024 18:00Overcast Clouds26°C7 mph, W99%10000m1011hPa77%
23-Jun-2024 21:00Overcast Clouds26°C9 mph, W89%10000m1009hPa79%
24-Jun-2024 00:00Broken Clouds24°C9 mph, SW84%10000m1010hPa85%
24-Jun-2024 03:00Broken Clouds24°C9 mph, SW82%10000m1012hPa88%
24-Jun-2024 06:00Overcast Clouds23°C7 mph, SW89%10000m1012hPa88%
24-Jun-2024 09:00Overcast Clouds23°C7 mph, SW100%10000m1011hPa88%
24-Jun-2024 12:00Overcast Clouds23°C7 mph, SW100%10000m1012hPa88%
24-Jun-2024 15:00Light Rain24°C7 mph, SW100%10000m1013hPa85%
24-Jun-2024 18:00Overcast Clouds25°C9 mph, SW100%10000m1012hPa80%
24-Jun-2024 21:00Overcast Clouds25°C11 mph, SW89%10000m1010hPa78%
25-Jun-2024 00:00Broken Clouds24°C9 mph, SW75%10000m1011hPa85%
25-Jun-2024 03:00Broken Clouds23°C7 mph, SW58%10000m1013hPa88%
25-Jun-2024 06:00Broken Clouds23°C9 mph, SW79%10000m1013hPa87%
25-Jun-2024 09:00Light Rain23°C9 mph, SW100%10000m1012hPa88%
25-Jun-2024 12:00Overcast Clouds23°C9 mph, SW100%10000m1014hPa87%
25-Jun-2024 15:00Overcast Clouds24°C9 mph, SW100%10000m1015hPa80%
25-Jun-2024 18:00Overcast Clouds26°C9 mph, SW100%10000m1013hPa73%
25-Jun-2024 21:00Overcast Clouds24°C11 mph, SW100%10000m1011hPa78%
26-Jun-2024 00:00Overcast Clouds23°C9 mph, SW97%10000m1013hPa83%
26-Jun-2024 03:00Overcast Clouds23°C9 mph, SW98%10000m1015hPa85%
26-Jun-2024 06:00Overcast Clouds23°C11 mph, S99%10000m1014hPa86%
26-Jun-2024 09:00Overcast Clouds22°C11 mph, SW95%10000m1014hPa87%